Regional Weather Roundup
Issued by NWS Upton, NY

Current Version | Previous Version | Text Only | Print | Product List | Glossary On
Versions: 1 2 3 4 5 6 7 8 9 10 11 12 13 14 15 16 17 18 19 20 21 22 23 24 25 26 27 28 29 30 31 32 33 34 35 36 37 38 39 40 41 42 43 44 45 46 47 48 49 50
000 ASUS41 KOKX 290218 RWROKX REGIONAL WEATHER ROUNDUP NATIONAL WEATHER SERVICE NEW YORK NY 1000 PM EDT THU MAY 28 2015 NOTE: "FAIR" INDICATES FEW OR NO CLOUDS BELOW 12,000 FEET WITH NO SIGNIFICANT WEATHER AND/OR OBSTRUCTIONS TO VISIBILITY. NYZ071-072-176-178-NJZ106-104-290300- NEW YORK CITY METRO AREA CITY SKY/WX TMP DP RH WIND PRES REMARKS CENTRAL PARK MOCLDY 78 53 41 VRB6 30.23R LAGUARDIA APRT MOCLDY 79 54 41 N10 30.19R KENNEDY INTL MOCLDY 68 58 70 E3 30.20R NEWARK/LIBERTY MOCLDY 78 52 40 N10 30.20R BRNX BOT. GARD N/A 73 55 53 N3 30.23R TETERBORO MOCLDY 77 53 43 N6 30.19R $$ NYZ177-179-078>081-290300- LONG ISLAND NEW YORK CITY SKY/WX TMP DP RH WIND PRES REMARKS FARMINGDALE MOCLDY 66 61 84 W3 30.20R ISLIP MOCLDY 65 61 87 SW6 30.18R SHIRLEY CLOUDY 66 63 90 S5 30.20R WESTHAMPTON CLOUDY 64 62 93 S6 30.21R MONTAUK POINT N/A 64 61 90 SW6 30.20R $$ NYZ052-065-067-290300- HUDSON VALLEY CITY SKY/WX TMP DP RH WIND PRES REMARKS WHITE PLAINS PTCLDY 72 57 59 N10 30.20R NEWBURGH CLEAR 70 57 64 VRB5 30.25R MONTGOMERY PTCLDY 68 54 60 CALM 30.23R POUGHKEEPSIE CLEAR 70 54 56 NE5 30.22R ALBANY PTCLDY 67 53 61 NW9 30.25R $$ NJZ001-105-106-008-010-013-015-019>022-104-290300- NEW JERSEY CITY SKY/WX TMP DP RH WIND PRES REMARKS NEWARK/LIBERTY MOCLDY 78 52 40 N10 30.20R TETERBORO MOCLDY 77 53 43 N6 30.19R CALDWELL MOCLDY 74 52 46 CALM 30.21R MORRISTOWN CLEAR 75 55 50 NE6 30.21R SOMERVILLE MOCLDY 76 51 41 N6 30.19R SUSSEX PTCLDY 64 54 69 CALM 30.26R ANDOVER N/A 69 54 58 N6 30.24R TRENTON CLOUDY 77 54 44 CALM 30.20R MILLVILLE MOCLDY 71 68 90 CALM 30.20R ATLANTIC CITY MOCLDY 71 64 78 S6 30.20R WRIGHTSTOWN MOCLDY 71 68 92 NE3 30.18R TOMS RIVER MOCLDY N/A N/A N/A CALM 30.19R BELMAR MOCLDY 72 63 73 W6 30.20R $$ PAZ047>061-062-071-290300- EASTERN PENNSYLVANIA CITY SKY/WX TMP DP RH WIND PRES REMARKS PHILADELPHIA CLOUDY 77 69 76 S6 30.20R ALLENTOWN CLEAR 72 52 49 N5 30.23R SCRANTON PTCLDY 69 53 56 NE6 30.28R $$ CTZ002-004>006-009-010-012-RIZ004-006-007-MAZ004-011-015-290300- SOUTHERN NEW ENGLAND IN CT CITY SKY/WX TMP DP RH WIND PRES REMARKS BRADLEY INTL PTCLDY 69 54 58 N8 30.22R HARTFORD PTCLDY 71 54 54 N10G21 30.22R DANBURY PTCLDY 69 54 58 N7 30.24R WTRBRY/OXFORD PTCLDY 66 54 63 N8 30.25R BRIDGEPORT MOCLDY 72 65 78 N12 30.20R MERIDEN PTCLDY 73 55 53 N8 30.22R NEW HAVEN MOCLDY 72 64 76 N7 30.20R CHESTER FAIR 70 61 73 N10G16 30.22R GROTON CLOUDY 64 60 87 CALM 30.19R WILLIMANTIC PTCLDY 73 56 54 N10 30.21R IN RI CITY SKY/WX TMP DP RH WIND PRES REMARKS PROVIDENCE CLOUDY 69 64 84 CALM 30.20R BLOCK ISLAND CLOUDY 61 55 82 SW15 30.20R WESTERLY CLOUDY 62 59 90 CALM 30.21R IN MA CITY SKY/WX TMP DP RH WIND PRES REMARKS BOSTON MOCLDY 74 58 57 NW14 30.19R WORCESTER CLEAR 65 54 67 NW7 30.24R WESTFIELD CLEAR 68 53 58 NW8 30.22R PROVINCETOWN CLOUDY 61 55 82 SW10 30.19R NANTUCKET MOCLDY 60 57 89 SW9 30.22R $$ ANZ330-335-338-340-345-350-353-355-290300- COASTAL MARINE OBSERVATIONS STATION/POSITION TIME SKY/WX TEMP WIND PRES VSBY WAVE AIR SEA DIR/SP/G HT/PER (UTC) (F) (DEG/KT/KT) (MB) (MI) (FT/S) NY HARB ENTRANCE 0150 61 58 200/ 14/ 16 1021.7 3/ 5 4S FIRE IS 0103 58 N/A 4/ 6 20S FIRE ISLAND 0150 62 57 210/ 14/ 16 1021.8 4/ 5 GREAT SOUTH BAY 0100 65 69 280/ 10/ 12 N/A 23SW MTP 0150 58 54 210/ 6/ 8 1022.6 4/ 6 HUDSON CANYON NOT AVBL KINGS POINT 0100 69 57 30/ 5/ 6 1020.9 CENTRAL LI SOUND NOT AVBL EASTERN LI SOUND 0100 59 230/ 4/ 6 N/A ROBBINS REEF 0100 81 330/ 11/ 14 1020.4 $$ >>>>>>>>>>>>>>>>>>>>>>>>>>>> KEY <<<<<<<<<<<<<<<<<<<<<<<<<<< > < > SKY/WX - SKY CONDITION/PRESENT WEATHER < > TMP - TEMPERATURE IN FAHRENHEIT < > DP - DEWPOINT IN FAHRENHEIT < > RH - RELATIVE HUMIDITY IN PERCENT < > WIND - DIRECTION AND SPEED IN MPH < > PRES - MEAN SEA LEVEL PRESSURE IN INCHES OF HG < > WCI - WIND CHILL INDEX < > VSB - VISIBILITY IN MILES < > HX - HEAT INDEX < > TC - TEMPERATURE IN CELSIUS < > VRB - VARIABLE WIND DIRECTION < > < >>>>>>>>>>>>>>>>>>>>>>>>>>>> KEY <<<<<<<<<<<<<<<<<<<<<<<<<<<

USA.gov is the U.S. government's official web portal to all federal, state and local government web resources and services.